Location: Fort Worth, Tx
(32.7431°N, 97.3695°W)
Time: 11:05:22
(UTC-05:00)

deb Explorer IX - Visible Passes

Search period start: 11 December 2023 00:00
Search period end: 21 December 2023 00:00
Orbit: 524 x 933 km, 38.7° (Epoch: 10 December)

Date Brightness Start Highest point End Pass type
(mag) Time Alt. Az. Time Alt. Az. Time Alt. Az.
11 Dec ? 20:26:11 10° W 20:29:15 40° NW 20:29:15 40° NW visible
12 Dec ? 19:33:58 10° W 19:38:02 62° NNW 19:39:57 28° NE visible
13 Dec ? 20:27:12 10° WNW 20:29:56 30° NW 20:29:56 30° NW visible
14 Dec ? 19:34:52 10° W 19:38:48 41° NNW 19:40:34 26° NE visible
15 Dec ? 20:28:03 10° WNW 20:30:31 27° NW 20:30:31 27° NW visible
16 Dec ? 19:35:42 10° WNW 19:39:34 34° N 19:41:08 25° NE visible
17 Dec ? 20:28:36 10° WNW 20:31:04 29° NW 20:31:04 29° NW visible
18 Dec ? 19:36:18 10° WNW 19:40:14 36° N 19:41:42 27° NE visible
19 Dec ? 20:28:55 10° WNW 20:31:43 39° NW 20:31:43 39° NW visible
20 Dec ? 19:36:36 10° WNW 19:40:46 48° NNE 19:42:27 29° ENE visible
20 Dec ? 21:21:31 10° WNW 21:21:48 12° WNW 21:21:48 12° WNW visible
